Wind_Speed
57 55 52 49 44 40 42 44 44 45 46 45 43 42 41 40 39 40 41 42 43 44 44 45 45 45 45 45 45 46 47 48 49 49 49 49 47 46 46 47 47 47 46 47 47 48 48 49 49 49 50 51 52 52 53 54 55 55 55 56 56 56 58 61 63 65 66 66 67 67 68 69 70 71 71 72 73 75 76 77 78 80 80 82 83 84 85 86
58 57 55 52 49 44 42 43 45 46 47 48 48 46 46 45 44 44 44 44 44 44 44 44 45 44 44 44 44 45 45 47 48 48 48 49 49 48 48 48 47 46 46 46 47 48 50 51 51 52 52 53 53 54 54 55 57 58 58 59 60 61 63 65 66 67 67 68 68 69 69 70 71 72 73 74 76 77 78 79 80 81 82 84 85 86 87 88
59 57 57 55 53 49 46 44 44 46 47 48 49 50 50 49 49 49 48 48 48 47 47 47 47 47 47 47 47 47 47 47 47 47 47 47 48 48 48 48 48 47 48 49 49 51 52 53 54 54 54 55 56 56 56 58 59 60 61 62 63 64 65 66 66 67 68 69 69 70 71 72 74 75 76 77 78 78 79 80 81 82 83 84 86 87 88 88
58 58 57 57 55 53 51 47 45 46 47 47 49 50 51 52 52 51 51 51 52 52 52 51 51 51 51 51 51 52 52 52 51 52 51 51 51 51 51 52 52 53 54 55 55 56 56 56 56 56 56 57 57 58 59 60 61 62 63 63 64 65 66 67 68 69 70 72 73 74 75 76 76 76 76 77 78 79 80 81 82 83 83 84 85 86 86 86
54 57 57 57 56 55 54 52 49 47 48 48 48 49 50 52 52 53 52 53 54 54 55 55 55 54 54 55 55 56 55 55 55 55 55 56 56 57 57 57 58 59 59 58 58 58 58 57 57 57 57 58 59 60 61 62 63 64 65 66 67 68 69 71 72 74 74 75 75 75 75 76 76 76 77 78 79 80 81 82 82 83 83 83 84 84 84 83
48 54 56 57 56 56 55 54 53 51 50 49 49 49 50 50 52 53 54 54 55 56 57 57 57 57 56 57 58 58 58 58 58 57 57 58 58 58 58 58 59 59 59 59 59 58 57 57 57 57 58 60 62 63 64 66 67 69 70 72 73 73 74 74 75 75 75 75 75 75 75 76 77 77 78 79 80 81 81 82 82 83 83 83 82 81 79 78
42 48 53 55 56 56 56 56 55 54 52 51 51 50 51 51 52 53 54 55 56 57 58 59 59 59 59 59 59 59 60 60 60 60 60 60 60 60 59 58 58 58 59 59 60 60 61 62 62 64 65 67 68 69 70 71 72 73 74 75 75 75 75 75 75 75 76 76 76 77 77 78 79 79 80 80 81 81 81 81 82 82 82 81 79 77 76 75
40 43 47 52 54 55 55 56 56 55 55 54 53 53 53 53 53 54 55 56 57 58 59 61 61 62 62 62 61 62 62 62 62 63 63 63 63 63 63 63 63 63 63 64 65 66 67 68 69 69 70 71 72 72 72 73 73 73 73 73 74 74 74 75 75 76 77 77 78 79 79 79 80 80 80 80 81 80 80 80 80 80 79 78 76 74 72 73
38 40 42 46 51 53 55 55 55 55 56 56 56 56 56 55 56 56 56 57 58 59 60 61 62 64 64 65 65 65 65 65 65 65 65 65 66 66 66 67 68 68 68 69 69 70 70 71 71 71 71 72 72 72 72 72 72 72 72 73 73 74 75 75 76 77 78 79 79 80 80 79 80 80 79 80 79 79 78 78 78 78 76 75 73 71 71 72
36 38 40 42 46 50 53 54 55 55 56 57 57 58 59 59 59 58 59 59 60 61 61 62 63 64 65 66 67 67 68 68 69 68 68 68 68 69 69 70 71 71 71 72 73 73 73 73 73 73 73 73 73 73 73 73 74 74 74 75 76 77 77 78 79 79 79 80 80 80 80 79 79 78 78 78 78 78 77 76 75 75 74 73 71 70 70 72
35 36 38 40 42 45 49 52 54 55 56 57 58 59 60 60 61 61 61 62 62 63 63 64 64 65 65 66 67 68 69 71 71 72 72 72 72 72 72 72 73 73 74 74 74 74 75 74 74 74 74 74 74 75 75 76 76 77 77 78 78 79 79 80 80 80 80 79 79 79 79 79 79 78 77 77 77 77 76 74 73 74 74 73 72 71 71 73
33 35 36 38 40 42 45 48 51 53 55 57 58 60 61 61 62 63 64 65 65 66 66 67 67 68 68 68 68 69 71 72 73 74 74 75 75 75 75 75 75 76 76 76 75 75 75 75 76 76 76 77 77 77 78 78 78 79 79 79 79 79 80 80 80 80 80 79 78 78 78 79 79 78 78 77 76 75 74 72 73 74 74 73 73 73 73 74
32 33 35 36 38 39 42 44 47 50 53 56 58 59 61 62 63 64 65 66 67 68 69 70 71 71 72 72 72 73 74 75 75 76 76 77 77 77 77 77 78 79 79 79 79 79 78 78 78 78 79 79 80 80 80 80 80 80 80 80 80 80 80 81 81 80 80 78 78 78 76 78 79 78 77 77 76 75 73 73 74 74 74 74 74 74 75 76
30 32 33 34 36 37 39 41 43 46 49 52 54 56 58 59 61 63 65 66 68 69 70 71 73 74 75 76 77 77 78 79 80 80 81 81 81 81 81 80 81 81 82 82 83 82 82 82 82 82 83 83 83 83 82 82 82 82 81 81 81 80 80 81 80 80 79 77 77 77 75 76 79 78 76 76 75 75 75 76 77 77 76 75 75 76 77 79
29 30 32 32 33 34 35 37 39 41 44 46 48 50 52 54 56 59 61 63 65 67 68 70 71 73 74 76 77 79 79 80 81 83 85 85 86 86 86 86 86 86 87 87 87 87 86 86 85 85 86 86 86 85 84 83 82 82 81 80 80 79 78 79 79 78 76 75 76 77 75 76 79 78 76 76 75 76 78 80 81 81 80 78 79 80 81 83
28 29 29 30 31 31 32 33 34 35 37 39 41 43 45 48 50 52 54 56 57 60 62 63 65 67 69 70 73 74 74 75 76 78 80 82 83 83 84 85 86 87 88 89 90 89 89 88 87 87 86 87 86 85 84 82 82 81 79 78 78 77 76 76 76 76 74 75 76 77 76 77 79 77 76 76 77 80 82 83 84 84 83 82 82 83 84 86
26 26 27 27 27 28 28 28 28 30 31 33 35 37 38 40 42 44 46 48 50 52 55 56 57 59 61 63 65 65 66 67 68 68 70 72 73 73 74 75 76 78 80 82 84 85 85 85 85 85 84 84 84 83 81 79 79 79 77 75 75 74 73 73 74 73 74 75 76 77 77 77 79 78 77 79 81 82 84 84 84 85 85 85 85 86 87 88
24 24 24 23 23 23 23 24 25 27 28 29 31 32 34 36 38 40 41 43 45 47 49 51 52 53 54 56 57 58 59 60 60 60 60 62 63 63 64 65 66 68 70 73 75 76 78 79 79 79 80 80 79 79 77 76 76 76 74 73 72 71 70 72 73 73 74 76 76 77 77 79 80 80 80 82 83 84 84 84 85 86 87 88 88 88 88 88
20 19 19 19 19 20 21 22 23 24 25 27 28 30 32 34 36 37 39 41 43 45 46 48 49 50 51 52 53 54 54 54 54 54 54 54 54 54 55 56 57 59 62 65 67 69 70 71 72 73 73 73 73 74 73 73 72 72 72 70 69 68 69 72 73 73 75 75 76 78 78 79 81 82 82 82 83 84 84 85 86 88 89 89 90 89 88 88
15 15 16 17 18 18 19 20 21 22 24 26 28 30 32 34 36 37 39 41 43 44 46 48 49 49 50 50 51 51 51 51 52 51 50 49 49 49 48 49 50 51 54 57 59 62 63 64 67 67 67 67 67 68 68 69 69 69 69 69 68 68 69 71 72 73 74 75 76 78 79 80 81 82 83 83 83 84 86 87 88 89 90 90 90 90 90 90
14 15 15 15 16 16 17 18 20 22 24 26 28 30 32 34 36 38 41 42 44 45 48 49 50 50 50 50 50 50 50 50 50 51 49 47 47 46 45 45 46 47 49 51 53 56 57 59 61 62 62 62 62 63 64 65 66 67 68 68 68 69 69 70 71 73 75 76 78 79 81 81 81 83 84 85 86 87 88 88 89 90 91 91 91 91 91 91
13 13 13 14 14 16 17 19 21 23 25 27 29 31 33 35 36 39 42 44 45 47 49 51 52 52 51 51 50 50 50 49 49 50 49 47 47 46 45 44 44 45 46 48 49 51 53 54 56 58 59 60 61 62 63 63 64 66 67 68 68 69 70 71 73 75 77 78 80 82 83 83 83 85 86 87 88 89 90 90 91 92 91 91 91 91 92 92
11 11 12 14 15 17 19 21 22 24 26 28 30 32 34 35 37 39 41 44 46 48 50 52 53 54 53 52 51 50 50 49 48 49 49 48 47 46 45 44 45 45 46 47 47 49 51 52 54 56 58 60 61 63 64 64 66 67 69 69 69 71 72 73 76 78 80 81 82 84 86 86 86 87 87 88 89 91 92 92 92 91 91 91 92 92 93 95
9 11 13 15 17 19 21 22 24 26 28 30 32 33 35 36 37 38 41 43 45 47 48 50 51 52 52 52 51 50 50 49 48 48 48 48 48 46 46 46 45 46 47 47 48 49 51 52 54 56 58 59 61 63 64 65 67 68 70 70 70 72 74 75 77 79 81 82 84 86 88 88 87 87 88 90 91 92 92 91 91 90 91 92 93 94 96 97
11 12 14 16 18 20 22 23 26 28 30 32 34 35 35 36 38 40 41 43 44 46 46 46 47 48 49 50 50 49 49 49 48 47 47 48 48 47 47 47 46 46 47 48 49 50 52 53 55 56 58 60 61 62 64 65 66 67 69 70 71 73 75 77 79 81 82 83 85 88 89 88 87 88 89 90 91 91 90 90 90 91 93 94 95 97 99 101
12 14 16 18 20 22 25 28 30 32 34 35 36 36 38 40 42 43 43 43 44 45 45 43 42 43 43 45 46 47 48 48 47 46 46 47 48 48 47 47 47 47 48 49 49 51 53 55 56 58 59 61 62 63 64 65 66 67 69 71 73 75 77 79 81 83 83 84 85 88 90 89 88 88 89 90 89 89 89 90 92 93 95 97 98 100 102 103
13 16 18 20 23 26 29 32 34 35 36 37 39 40 42 43 44 44 44 43 43 43 41 39 38 38 38 40 41 43 45 46 46 46 45 45 47 48 48 48 48 48 49 49 50 53 54 56 58 59 60 62 63 65 66 67 68 70 72 74 76 77 79 80 81 82 83 83 85 88 90 90 88 87 88 88 89 90 91 93 94 96 98 100 101 102 101 100
15 17 19 21 25 28 31 33 35 36 37 40 43 45 45 45 44 44 44 43 42 39 36 35 34 34 34 35 37 39 42 44 45 45 45 45 46 46 47 48 49 50 50 50 52 54 56 57 59 60 62 64 65 67 68 70 71 72 74 75 76 77 78 79 80 82 83 84 85 88 89 88 87 86 88 90 90 92 94 96 98 100 101 101 100 98 97 96
15 17 21 25 28 31 33 34 35 37 40 44 46 47 47 46 45 44 44 44 40 36 33 32 31 31 32 33 34 36 39 41 43 44 44 44 45 45 46 48 49 50 51 52 53 55 57 59 60 62 63 65 66 68 69 70 71 72 74 75 76 77 78 79 81 83 84 84 84 85 86 86 86 86 90 92 92 95 97 99 100 100 99 97 96 95 95 94
18 21 25 28 30 32 34 35 37 40 44 47 48 48 48 48 46 46 46 45 40 36 33 31 30 30 30 31 32 34 36 39 41 43 44 44 45 46 46 48 49 50 51 53 54 56 58 59 61 62 64 65 67 68 69 70 71 73 74 76 77 78 79 80 81 82 82 82 82 83 84 86 87 88 91 95 96 98 100 99 98 96 95 95 93 92 90 89
21 25 28 30 32 34 35 36 39 43 46 49 49 49 48 48 47 46 46 44 40 36 33 31 30 29 29 29 30 32 33 36 39 41 43 45 46 46 47 48 49 50 52 53 54 56 58 59 61 62 64 65 67 68 69 71 72 74 75 77 78 78 79 78 78 79 80 80 82 83 85 88 89 91 95 97 98 98 97 96 95 93 92 90 88 86 86 86
24 28 30 32 33 35 37 39 42 46 48 49 49 50 49 49 48 46 45 43 38 35 32 31 31 30 29 29 29 30 31 34 37 39 42 44 46 47 49 49 50 51 52 54 55 57 58 60 62 63 65 67 68 69 71 72 73 74 76 77 77 77 76 75 75 77 79 81 83 85 88 90 92 94 96 96 95 94 93 91 89 87 85 84 84 85 86 88
27 30 32 34 36 38 39 42 45 48 49 49 49 50 50 50 50 48 46 41 37 33 32 31 30 30 30 29 29 29 30 32 34 37 39 42 45 47 48 50 51 52 53 55 57 59 61 62 63 65 66 68 69 70 71 72 72 72 73 74 74 75 75 74 75 77 80 83 85 88 90 91 91 92 92 92 90 88 86 84 82 82 82 84 86 88 90 91
30 33 34 36 38 40 42 45 48 49 49 49 50 50 50 50 50 49 46 41 36 33 32 31 30 30 30 30 30 29 30 31 32 34 36 39 42 44 46 49 51 52 53 55 56 58 60 62 64 65 66 67 68 68 68 69 69 69 71 73 74 76 77 77 78 80 82 84 86 88 89 88 87 86 85 85 83 82 81 81 82 83 85 88 89 91 93 94
33 34 37 39 40 42 45 47 49 49 49 50 50 50 50 50 50 48 44 39 36 34 32 31 30 30 30 30 30 30 31 31 32 33 35 37 39 41 43 45 48 50 51 53 54 55 57 60 62 63 64 65 65 65 66 67 68 69 72 74 76 79 81 82 82 82 83 82 82 84 84 82 81 79 78 79 80 81 83 84 86 88 89 91 92 93 94 95
35 37 40 41 43 45 48 49 50 50 50 51 51 51 50 50 48 45 41 37 35 34 32 31 30 30 29 30 30 31 31 32 33 34 35 36 38 39 41 43 45 47 49 50 51 52 53 56 59 60 61 63 63 65 67 68 70 72 74 77 78 80 81 82 81 81 81 78 76 76 75 75 75 76 77 80 82 84 86 87 89 90 91 92 93 94 96 97
38 40 42 43 45 47 49 50 51 51 51 51 51 51 50 49 46 42 38 35 33 32 31 31 31 30 30 30 30 31 32 33 34 34 35 36 38 39 41 42 44 45 47 48 49 50 51 53 58 61 61 63 65 67 69 71 72 74 75 77 78 78 79 79 77 76 75 72 69 69 71 73 76 79 81 83 85 86 87 88 90 91 92 94 96 97 99 101
40 42 44 45 47 48 50 51 51 52 52 52 51 50 49 46 42 39 36 34 32 31 31 31 31 31 31 31 31 31 32 33 34 35 36 38 39 40 41 43 44 45 47 48 49 51 51 53 59 63 64 65 66 68 69 71 72 73 74 75 74 74 73 72 71 70 70 69 69 70 73 76 79 82 83 84 85 86 88 90 92 94 95 97 99 101 103 105
41 43 45 46 48 49 51 52 52 52 52 52 50 48 45 41 38 36 34 33 32 31 31 31 31 31 32 32 32 33 33 34 35 36 37 38 40 41 42 44 45 46 48 50 51 52 53 54 58 63 63 64 65 66 67 69 69 70 70 68 67 67 67 67 69 71 72 73 73 73 73 76 81 83 84 85 87 89 91 93 95 97 99 101 103 105 107 109
43 45 46 48 49 51 51 52 52 52 52 51 48 44 40 37 36 34 33 32 32 32 31 31 32 32 32 33 33 34 35 35 36 37 39 40 41 42 44 45 46 47 49 50 51 52 54 54 57 60 62 62 62 62 62 63 63 63 63 63 64 66 67 69 71 74 75 75 76 76 74 76 82 86 87 89 91 93 95 97 99 101 103 105 107 109 110 112
45 46 48 49 51 51 52 52 52 52 50 47 43 39 36 34 33 32 31 31 31 31 32 32 32 33 34 34 35 36 36 37 38 39 40 41 42 44 45 46 47 48 49 50 52 53 53 54 55 57 58 57 56 55 55 57 59 60 62 64 66 68 69 70 71 73 76 78 80 81 79 80 85 89 90 93 95 97 99 101 103 105 107 109 111 112 114 116
46 48 49 50 51 52 52 52 51 49 46 41 38 35 33 31 31 30 30 31 31 31 32 32 33 34 34 35 36 37 37 38 39 40 41 42 43 44 45 46 47 48 49 50 51 50 50 49 49 50 51 51 51 53 55 58 61 63 64 65 67 68 70 72 73 75 78 80 84 85 84 84 88 91 93 96 98 100 102 105 107 109 111 112 114 116 118 119
47 48 49 50 51 51 51 51 49 44 40 36 34 32 30 30 30 30 30 31 31 32 33 33 34 35 36 37 37 38 39 40 40 41 42 43 44 45 45 46 46 46 46 45 45 45 44 44 45 47 50 52 54 56 58 60 62 63 65 66 68 70 73 75 77 78 80 83 86 89 89 89 92 95 97 99 101 104 106 108 110 112 114 115 116 118 119 120
47 48 49 50 50 50 50 48 43 39 35 33 31 29 29 29 30 30 31 32 33 33 34 35 35 35 36 37 38 39 40 40 41 42 42 42 43 43 42 42 41 41 41 41 42 44 45 46 47 48 50 52 54 57 59 61 64 66 68 69 70 72 75 77 80 82 84 86 89 92 92 94 96 99 100 102 104 106 109 110 112 113 115 115 116 116 117 117
47 48 49 49 50 49 47 42 37 34 31 30 29 29 30 30 31 31 32 33 34 34 35 36 36 37 37 38 38 39 39 40 39 39 39 39 38 38 37 37 38 39 41 42 44 46 48 49 50 51 51 51 53 57 59 61 64 68 70 72 73 75 78 80 83 85 87 88 91 94 96 97 100 102 104 105 107 108 110 111 112 113 113 113 113 113 114 114
47 48 49 50 48 45 40 36 32 31 30 30 30 31 31 32 33 33 34 34 35 36 36 37 37 37 37 37 37 37 36 36 35 35 35 35 35 36 37 38 39 41 42 44 45 47 50 52 54 55 56 55 57 60 61 62 65 69 72 75 76 78 80 82 84 87 89 91 93 97 100 101 104 106 107 108 109 109 110 110 110 110 110 110 111 111 112 113
47 49 49 48 44 39 34 31 30 30 30 30 31 32 33 34 34 35 35 36 36 36 36 36 36 35 35 34 34 33 33 33 33 33 34 35 36 37 38 40 42 43 44 46 47 49 51 53 56 59 61 60 61 64 66 67 69 71 73 76 77 79 81 84 87 90 93 95 97 99 102 103 105 107 108 108 108 108 108 108 108 108 108 109 110 111 112 112
48 49 47 43 38 33 31 30 30 30 31 32 33 33 34 35 35 35 35 35 35 34 34 33 33 32 32 32 32 33 33 34 34 35 36 37 38 40 41 42 43 45 46 47 49 50 53 55 58 62 66 66 66 68 69 70 72 73 74 76 79 81 84 88 91 94 97 99 101 102 103 105 106 106 106 106 106 106 106 106 107 107 108 109 110 110 111 112
48 46 41 36 31 30 29 29 30 31 32 33 34 34 34 34 34 34 33 32 32 31 31 31 30 31 31 32 32 33 34 35 36 38 39 39 40 41 43 44 45 47 49 50 53 55 57 59 60 63 67 68 69 70 71 72 73 75 77 80 82 85 88 92 95 98 100 102 103 104 104 104 105 104 104 104 104 105 105 106 107 108 108 108 109 110 110 111
45 40 34 30 29 28 29 30 31 32 33 34 34 34 33 32 32 31 30 29 29 29 29 29 30 30 31 32 33 33 34 34 35 37 38 40 42 44 46 49 51 53 54 56 57 59 59 60 61 62 65 68 69 71 73 75 77 79 82 84 86 89 92 95 98 100 102 103 103 103 103 102 102 102 102 103 104 104 105 105 106 107 107 107 108 108 109 110
39 33 29 28 28 29 30 31 32 33 33 33 32 32 31 30 29 28 28 28 28 28 28 29 29 30 31 32 33 34 35 36 38 40 42 45 47 49 51 53 55 56 57 58 59 60 60 61 62 62 65 68 71 73 76 79 81 84 86 88 90 93 96 98 100 102 103 103 101 100 100 99 99 100 100 101 102 102 103 104 104 104 105 105 106 107 107 108
32 29 27 28 29 30 31 32 32 32 32 31 30 29 28 28 27 27 27 27 27 27 28 29 30 31 33 35 37 39 41 43 45 47 49 50 52 53 54 55 56 56 58 59 60 61 62 63 64 65 66 70 73 75 78 81 84 87 90 92 94 96 98 99 100 102 102 101 99 98 97 97 98 98 98 99 99 100 101 102 102 102 102 103 104 105 105 106
Wind_Direction
212 210 210 210 209 208 212 217 217 213 210 210 213 216 217 219 222 225 227 230 234 237 240 240 239 240 242 245 247 249 250 252 253 253 254 255 256 256 256 256 256 257 257 257 257 258 259 261 262 263 263 263 263 264 263 264 265 266 268 267 266 265 266 268 271 273 274 275 276 276 277 277 278 279 279 280 280 280 281 281 282 282 283 283 283 284 284 285
214 213 213 213 213 211 211 215 219 219 217 215 215 217 219 221 222 224 225 226 228 231 234 236 236 237 239 242 244 246 247 248 250 251 252 253 254 255 255 256 257 259 259 260 260 262 264 265 265 265 264 264 264 264 264 263 264 266 267 266 266 266 268 270 272 274 275 275 276 276 277 277 278 279 280 280 280 281 281 282 282 283 284 284 285 285 286 286
215 215 215 216 216 216 215 215 217 220 221 221 220 220 221 223 225 226 227 228 229 230 232 234 234 234 235 237 239 241 243 245 246 248 249 250 252 253 252 253 254 256 258 259 261 262 264 264 264 264 263 264 263 263 263 263 265 266 267 267 267 268 270 271 272 273 274 275 276 277 277 278 279 280 281 281 281 281 282 283 284 284 285 286 287 287 288 288
217 217 217 218 219 219 219 219 218 219 221 223 224 225 225 226 228 229 230 231 232 234 236 238 239 238 237 237 240 242 244 247 248 249 250 251 253 254 254 255 257 258 259 261 262 263 264 264 263 262 262 262 262 262 263 264 266 267 267 268 269 270 271 272 273 275 275 276 277 278 279 279 280 281 281 282 282 283 284 285 286 286 287 288 288 289 289 289
217 219 220 220 221 222 223 223 222 221 222 223 226 228 229 230 231 232 233 234 235 236 238 240 242 242 241 240 241 243 246 248 250 251 251 252 254 256 257 258 259 260 260 261 262 263 263 263 263 263 262 262 262 263 264 265 267 268 269 270 271 272 274 275 276 277 278 278 279 279 279 280 280 281 282 283 284 285 286 287 287 288 288 289 289 290 290 290
219 220 221 222 223 224 225 226 226 226 225 225 227 229 230 232 234 235 236 237 238 240 241 242 244 245 245 245 245 246 248 250 251 251 252 253 254 255 256 257 258 258 259 260 261 261 261 262 262 262 263 263 264 265 266 268 269 270 272 273 274 275 276 276 277 277 278 278 279 279 280 281 281 282 283 284 285 286 287 288 288 289 289 289 290 290 289 288
221 221 222 224 225 226 228 229 229 229 229 229 230 230 231 233 235 237 238 240 241 242 243 244 246 247 248 248 249 250 251 252 253 254 254 254 254 254 255 255 256 257 258 259 260 261 261 262 263 264 265 266 267 268 269 270 271 272 273 274 275 275 276 276 276 277 277 278 279 280 281 282 283 284 285 285 286 287 288 288 289 289 289 289 289 289 288 287
223 223 223 224 226 228 230 231 232 233 233 233 233 234 234 235 236 237 239 241 242 244 245 246 247 248 249 249 250 251 252 253 255 256 257 257 257 256 256 257 257 258 259 261 262 263 264 265 266 267 268 269 270 271 272 272 273 273 274 274 275 275 275 276 276 277 278 279 280 281 282 283 284 285 286 286 287 288 288 289 289 289 289 289 288 288 288 287
224 225 224 225 227 229 231 233 234 235 236 236 237 237 238 238 239 240 241 242 244 245 246 247 248 249 250 250 251 251 252 253 254 255 256 257 258 259 259 259 260 260 262 263 264 265 267 267 268 269 270 271 271 272 272 273 273 274 274 275 275 276 277 277 278 279 280 281 282 283 284 284 285 286 286 287 288 288 289 289 290 289 289 289 289 289 288 287
225 226 226 226 227 229 232 234 236 237 239 239 240 241 241 242 242 243 244 244 245 246 247 248 249 250 251 252 252 252 253 254 255 255 256 257 258 259 260 261 261 262 263 264 265 266 267 268 269 269 270 270 271 271 272 273 273 274 275 275 276 277 278 279 280 281 282 282 283 284 285 285 285 286 287 287 288 288 289 290 290 289 288 288 288 288 288 286
225 226 228 228 229 231 232 235 237 239 241 242 243 244 244 245 246 247 247 248 249 249 250 251 251 252 252 253 254 254 255 255 256 257 257 257 258 260 261 262 263 263 264 264 265 266 267 268 268 269 270 270 271 272 272 273 274 275 276 277 278 279 279 280 281 282 283 284 284 285 285 285 286 286 286 287 288 289 290 291 290 288 287 287 287 288 287 286
227 227 229 230 232 233 234 236 238 240 242 244 245 246 247 248 249 250 251 251 252 253 254 255 255 256 256 256 256 256 256 257 257 258 258 259 259 260 261 262 263 264 264 265 265 266 267 267 268 269 270 270 271 272 273 274 275 276 277 278 279 279 280 281 282 283 283 284 285 285 286 286 286 286 286 287 288 289 290 290 289 287 286 286 287 287 287 287
228 229 230 232 234 236 237 239 240 242 243 245 247 248 249 251 252 253 254 255 256 257 257 258 259 259 260 260 260 260 260 260 260 260 260 260 260 260 261 262 263 264 265 266 266 266 267 267 268 269 270 271 272 272 273 274 275 276 277 278 279 280 281 281 282 283 284 284 285 285 286 286 285 286 286 287 288 289 290 290 288 286 285 286 287 288 288 288
230 231 233 235 237 238 240 242 244 245 246 248 250 251 253 254 256 257 258 259 259 260 261 261 262 262 263 263 263 263 264 264 264 263 263 263 262 262 262 262 263 264 265 266 266 267 267 268 268 269 270 271 271 272 273 274 275 276 277 278 279 280 280 281 282 283 284 284 285 285 285 284 285 286 287 287 288 289 290 290 289 288 287 287 288 289 290 290
231 233 235 238 240 243 245 246 248 249 251 253 254 255 256 257 258 259 260 261 262 263 263 264 265 265 265 266 265 266 266 266 267 267 266 266 266 265 265 264 264 264 264 265 266 266 267 267 268 269 269 270 271 271 272 274 275 275 276 277 278 279 280 281 282 283 284 284 284 284 284 284 285 286 287 288 289 290 290 290 290 290 289 289 289 290 291 291
232 235 238 241 244 246 249 251 253 255 256 257 257 258 259 260 260 261 262 263 264 265 265 265 266 266 267 267 267 267 268 268 268 269 269 269 268 268 267 267 266 265 265 265 265 265 266 266 267 267 268 269 269 270 271 272 273 274 275 276 277 278 279 281 281 282 283 282 282 283 284 284 285 286 287 288 289 290 290 291 291 291 290 290 290 291 291 291
234 236 239 243 246 250 253 256 257 258 259 259 260 261 261 262 262 263 263 264 264 265 266 266 266 266 267 267 268 268 268 268 269 269 270 270 270 270 269 268 267 266 265 265 265 265 265 265 265 266 266 267 268 269 270 271 272 273 274 275 276 277 279 280 280 281 281 281 282 284 285 285 285 286 287 288 288 289 290 291 290 290 290 290 290 291 291 290
234 237 241 246 250 254 257 259 261 262 264 265 266 266 266 266 266 266 266 266 266 266 267 267 267 267 267 268 268 268 268 268 269 269 270 271 272 271 270 269 267 266 265 264 264 264 264 264 264 265 265 267 268 269 269 270 271 272 273 274 275 277 278 277 277 278 280 281 283 284 285 285 285 286 287 288 289 290 290 290 290 289 289 290 290 291 291 290
236 240 244 249 252 256 259 263 266 269 272 273 274 275 275 274 273 273 273 272 272 271 271 270 270 269 269 269 269 270 270 270 271 271 272 273 274 274 273 272 269 267 265 264 263 263 263 264 264 265 266 267 268 268 269 269 270 271 272 273 273 274 275 275 276 278 280 281 283 284 284 284 286 287 287 288 289 290 291 291 290 290 290 291 291 291 291 291
236 239 243 248 253 259 265 270 275 278 280 282 282 282 282 282 282 282 281 280 279 279 277 276 274 273 272 271 272 272 272 273 274 274 274 275 276 277 277 275 274 270 266 263 262 262 263 263 264 265 266 266 267 267 268 269 269 270 271 271 271 272 273 275 277 278 279 280 282 282 283 284 286 287 288 288 289 290 290 290 291 291 291 291 291 291 291 291
232 238 244 250 258 265 272 277 280 282 283 284 284 285 286 286 286 286 285 284 283 283 282 280 278 277 275 274 274 274 274 275 276 277 277 278 278 279 279 278 276 273 268 265 263 262 263 263 264 264 265 265 266 266 267 268 269 270 270 270 271 271 272 274 276 277 278 280 281 282 282 284 286 287 288 289 289 289 289 290 290 291 291 291 291 291 291 291
236 243 250 259 266 270 274 277 279 282 283 285 287 289 290 290 289 288 287 285 284 283 281 281 280 279 278 277 276 275 275 275 275 277 278 278 279 280 280 279 277 275 272 268 265 264 264 263 264 264 264 264 264 265 266 267 268 269 269 269 269 270 271 272 274 275 277 279 280 281 282 284 286 287 288 289 289 289 290 290 290 291 291 290 290 291 291 291
245 254 261 266 269 272 275 278 283 288 290 292 294 294 294 292 289 287 286 284 283 281 280 279 279 279 278 277 276 276 275 275 274 275 276 277 278 278 279 279 277 276 273 270 267 265 265 265 265 265 265 265 266 267 268 268 268 269 269 269 269 270 271 272 274 275 277 279 280 282 283 285 286 287 288 289 289 290 291 291 291 290 290 290 290 291 291 292
254 261 266 271 275 279 281 285 292 296 298 300 301 300 297 295 293 291 290 288 286 284 282 279 278 277 277 277 276 276 275 274 274 273 274 275 276 276 277 277 276 275 273 272 270 268 267 267 267 267 268 269 270 271 271 272 272 272 273 273 273 273 274 275 276 277 278 280 282 283 284 285 286 287 288 289 290 290 290 290 290 290 290 290 291 291 292 292
261 268 275 281 285 287 290 296 302 305 307 307 306 305 305 305 304 301 299 296 294 291 288 284 281 278 276 275 274 274 273 273 273 272 271 272 273 274 275 275 276 275 274 273 272 271 270 270 269 269 270 271 272 273 274 274 275 275 276 276 276 277 277 278 278 279 280 282 283 285 285 285 286 287 288 289 289 289 289 289 289 290 290 291 291 292 292 292
275 285 293 297 299 302 306 310 311 312 313 311 311 312 313 313 311 308 305 303 301 297 294 290 285 280 277 273 272 271 270 271 271 271 270 269 271 272 273 274 274 275 275 274 273 272 272 272 272 272 273 273 274 275 275 276 276 276 277 277 278 278 278 279 280 281 282 283 284 285 285 286 287 288 289 289 289 289 289 289 289 290 290 291 291 292 292 292
291 298 303 305 306 310 312 312 313 314 314 315 317 319 318 316 314 312 309 307 305 302 298 293 288 283 279 274 271 268 268 268 269 269 269 269 269 270 272 273 273 274 274 274 274 273 273 273 274 274 274 274 275 275 276 276 276 277 277 278 279 279 280 281 282 283 283 284 285 286 286 287 288 289 289 288 289 289 290 290 290 291 291 292 292 292 292 292
294 297 299 299 301 305 308 310 312 314 316 320 321 320 319 317 315 314 312 311 310 305 300 295 291 287 282 277 272 268 266 266 267 268 269 268 268 269 270 271 271 272 273 273 273 273 273 274 274 275 275 275 275 276 276 277 278 278 279 279 280 281 282 282 283 284 284 285 286 287 288 288 289 289 289 289 290 290 291 291 292 292 292 293 293 293 293 293
287 287 288 292 298 304 308 311 314 317 321 322 321 320 319 318 317 317 316 316 314 308 302 298 294 290 286 281 275 270 266 265 265 267 267 268 268 268 268 269 270 271 271 272 272 273 273 274 274 275 275 276 276 277 277 278 279 279 280 280 281 282 282 283 284 285 285 286 287 287 288 288 289 289 290 290 291 292 292 292 293 293 293 293 293 293 293 293
281 284 288 295 301 306 310 314 317 321 323 322 320 320 320 319 319 320 320 319 316 311 306 302 298 293 289 285 280 274 269 266 265 266 267 267 268 268 268 269 270 270 271 272 272 273 273 274 275 275 276 277 277 278 278 279 279 280 281 281 282 282 283 284 285 286 286 287 286 287 288 289 290 291 291 292 293 293 293 293 293 293 293 293 293 293 293 292
286 289 294 298 303 308 313 317 320 322 321 320 320 320 320 320 320 321 322 320 316 312 309 306 302 298 293 288 283 279 274 269 266 265 266 267 268 269 270 270 270 271 272 272 273 274 274 275 276 277 277 278 278 279 279 280 281 281 282 282 283 283 284 285 285 286 286 287 287 288 290 291 292 292 292 292 293 293 293 293 293 293 293 294 294 293 293 292
289 292 296 302 307 313 317 319 321 321 320 319 320 320 320 321 320 321 321 319 316 312 309 307 305 302 297 292 287 282 278 274 270 268 267 267 268 269 270 271 272 273 274 275 275 276 276 277 277 278 279 279 280 280 281 281 282 282 283 283 283 283 284 285 285 286 287 288 290 291 291 292 292 292 292 292 292 292 292 293 293 293 294 294 293 292 292 292
289 294 301 307 312 315 318 320 320 319 318 319 320 320 320 320 320 320 321 319 316 312 310 308 306 304 301 297 292 287 282 278 275 273 271 270 270 270 271 272 273 274 275 276 277 278 278 278 279 279 280 280 280 281 282 282 283 283 284 284 285 285 285 286 287 288 289 290 291 291 291 292 292 292 292 292 292 292 293 293 293 293 293 293 292 293 293 293
292 299 306 310 314 317 318 319 318 318 318 319 319 319 319 319 319 320 320 318 316 314 312 309 307 305 303 300 296 292 288 283 280 278 276 274 273 273 273 274 274 275 276 277 277 279 279 280 280 281 281 282 282 283 284 284 285 286 286 286 287 288 289 290 290 290 291 291 292 292 292 293 293 293 293 293 293 293 294 294 294 294 293 293 294 294 294 294
298 303 308 312 315 317 317 317 316 317 318 319 318 318 318 318 318 319 319 317 315 314 313 310 307 305 303 300 298 295 291 288 285 282 280 279 277 277 276 276 276 276 277 278 278 279 280 282 282 283 283 284 285 286 286 286 287 287 288 288 289 290 291 291 292 292 292 292 293 293 293 294 294 294 294 293 293 294 294 295 295 294 294 294 294 294 294 294
302 306 310 313 315 315 315 315 316 317 318 318 318 317 317 318 318 317 317 316 315 314 313 311 308 306 303 301 299 296 294 291 289 286 284 282 280 279 278 278 278 278 279 279 280 281 282 283 284 284 285 286 286 287 287 288 289 289 290 290 290 291 292 293 293 294 294 294 295 295 295 295 295 295 294 294 294 295 295 295 295 295 295 295 294 294 294 294
306 308 311 312 313 313 314 316 317 317 317 317 317 317 317 317 317 316 315 315 314 313 312 311 308 306 303 301 299 297 296 294 292 291 289 287 285 284 283 283 282 282 283 283 284 284 284 285 286 286 287 288 289 289 290 291 292 292 292 292 292 293 294 294 295 295 295 296 297 297 296 296 296 295 294 294 295 295 295 295 295 295 295 295 294 294 294 294
306 308 310 311 311 313 315 316 317 317 317 317 317 317 317 316 316 315 315 315 314 314 313 311 308 306 304 302 300 298 297 296 294 294 293 292 291 290 289 289 288 288 288 288 289 289 289 289 289 289 291 291 292 292 293 293 294 294 293 294 295 296 296 296 297 297 297 297 298 297 297 297 296 295 295 295 296 295 295 295 295 295 295 295 294 294 294 294
306 308 309 310 312 314 316 317 317 316 316 316 316 316 316 316 315 315 315 316 316 316 314 313 310 309 307 305 304 302 300 299 297 296 295 295 294 294 294 294 294 294 294 294 294 293 293 293 292 292 293 293 294 295 295 295 295 295 295 297 298 298 299 299 300 299 299 299 298 297 297 297 296 295 296 297 296 296 296 296 295 295 295 295 294 294 294 294
305 307 309 311 313 315 316 316 316 316 316 316 317 317 316 316 315 316 317 318 318 318 317 316 314 313 312 310 308 307 305 304 303 302 301 301 300 300 300 299 299 298 298 298 297 297 297 296 295 295 295 296 296 297 297 297 297 298 299 300 301 301 301 301 301 300 300 300 299 299 299 298 297 297 297 297 297 296 296 296 295 295 295 295 295 295 295 295
306 308 310 312 314 316 316 316 315 316 316 317 317 317 317 317 317 318 319 320 321 320 319 318 317 316 314 313 312 310 309 308 307 306 306 305 304 303 303 302 302 302 301 300 300 299 299 299 298 298 298 299 301 301 301 301 300 301 302 302 302 302 302 302 301 301 301 301 300 300 300 299 298 297 297 297 297 297 296 296 296 296 296 296 296 295 295 295
307 309 311 313 314 315 315 315 316 316 317 318 318 318 318 319 320 321 322 322 321 321 320 319 317 316 315 314 313 312 311 310 309 309 308 307 306 305 305 304 304 304 303 303 303 302 303 303 303 303 303 304 305 305 304 303 303 303 303 303 303 303 303 303 302 302 301 301 300 300 300 299 298 298 297 297 297 297 297 297 296 296 296 296 295 295 295 295
309 311 312 314 314 315 315 316 317 318 318 319 319 319 320 322 323 323 323 322 322 321 320 319 318 317 315 314 314 313 312 311 311 310 309 308 308 307 307 307 308 308 308 309 309 308 309 309 308 308 307 308 308 306 305 305 305 305 305 305 305 305 304 303 303 302 301 301 300 300 301 300 300 299 298 298 298 297 297 296 296 296 295 295 295 295 295 295
310 312 313 314 314 315 316 317 318 319 319 320 321 322 323 324 324 323 323 322 321 320 319 318 317 316 315 315 314 313 313 313 312 312 312 311 311 312 313 313 314 314 314 314 313 312 311 310 309 308 308 309 309 308 307 308 307 306 306 305 305 305 304 304 303 303 303 302 302 301 301 301 300 299 298 298 297 296 296 296 296 296 296 296 296 296 296 296
312 313 314 314 315 316 317 318 319 320 321 321 323 324 324 324 324 323 323 321 320 319 319 318 318 317 317 317 316 316 316 316 316 316 316 318 318 319 319 319 318 317 316 315 315 314 313 312 311 310 309 309 308 307 307 307 306 306 306 306 306 306 305 305 305 304 303 302 301 300 300 300 299 298 298 298 298 298 297 297 297 297 297 297 297 297 297 297
314 314 315 315 316 317 318 319 320 321 323 324 324 325 325 324 324 323 322 322 321 321 321 321 321 321 320 320 320 320 320 321 322 322 323 324 323 322 322 320 319 319 318 318 317 317 316 315 314 312 311 311 310 309 308 309 308 308 308 308 308 307 306 305 304 303 302 301 301 301 301 301 301 300 300 300 299 299 299 299 298 298 298 298 298 298 298 298
315 315 316 316 317 318 319 321 322 323 324 325 325 325 325 324 324 323 323 323 323 323 323 324 324 324 325 325 326 327 327 327 328 327 326 326 325 324 324 323 322 321 320 319 318 318 317 316 315 314 313 314 314 313 313 312 311 310 309 308 307 306 305 304 304 303 303 302 302 302 302 302 302 302 302 301 301 301 300 300 300 300 300 300 299 299 299 299
315 316 316 317 318 320 322 323 324 324 325 325 324 324 324 324 325 325 325 325 325 326 327 328 329 330 331 332 332 332 332 331 331 330 330 329 328 327 326 324 323 321 320 319 319 319 318 318 318 317 316 317 317 315 313 312 310 309 308 307 307 306 306 306 305 305 305 305 304 304 304 304 303 303 303 302 302 302 302 302 301 301 301 300 300 299 299 298
316 316 317 318 320 322 323 324 324 324 324 324 325 325 326 326 326 327 328 328 329 331 333 334 335 336 336 336 337 336 336 335 334 333 331 330 328 326 325 324 324 324 324 323 322 322 322 321 320 317 315 315 314 313 311 310 309 309 308 308 308 308 308 307 307 307 306 306 306 306 306 305 305 305 304 304 304 304 303 303 302 301 301 300 300 299 299 299
317 317 318 320 322 324 324 324 324 324 324 326 326 327 327 327 328 330 331 333 335 336 338 339 340 341 341 340 339 337 335 334 332 330 329 329 329 329 329 329 329 328 327 325 323 322 321 319 317 315 313 312 312 312 311 311 310 310 310 310 310 310 309 309 308 308 308 307 307 307 307 306 306 306 305 305 304 304 303 302 302 301 301 301 300 300 300 300
317 318 320 322 324 325 324 324 324 325 326 327 327 328 328 330 332 334 337 339 341 342 343 344 343 342 341 339 337 335 334 334 333 333 333 333 333 333 332 330 329 327 325 323 321 319 318 316 315 314 313 312 312 312 312 312 312 311 311 311 311 311 311 310 310 309 309 308 308 307 307 306 306 305 305 304 304 303 303 302 302 302 301 301 301 300 300 299
318 320 322 324 324 325 324 325 326 326 327 327 328 330 332 334 337 340 343 345 346 346 345 344 342 341 341 340 340 339 339 338 338 337 336 334 333 331 329 328 326 324 322 321 319 318 317 316 315 315 314 314 314 314 313 313 313 312 312 312 312 312 311 311 311 310 309 308 308 307 307 306 306 305 305 305 304 304 303 303 302 302 301 301 300 300 299 299
Height
10738 10741 10744 10746 10749 10750 10751 10753 10754 10755 10756 10757 10758 10759 10760 10760 10761 10761 10762 10762 10762 10763 10763 10764 10764 10764 10764 10764 10765 10765 10764 10764 10764 10764 10764 10764 10764 10765 10764 10764 10764 10764 10764 10764 10764 10763 10763 10763 10763 10762 10762 10761 10761 10760 10760 10759 10758 10757 10757 10756 10755 10753 10751 10750 10748 10747 10746 10745 10744 10743 10741 10739 10738 10736 10734 10732 10730 10727 10724 10721 10718 10714 10712 10708 10705 10702 10699 10697
10736 10739 10741 10743 10745 10748 10749 10750 10752 10753 10754 10755 10755 10756 10757 10758 10758 10758 10759 10759 10760 10760 10760 10761 10761 10761 10761 10761 10762 10762 10761 10761 10761 10761 10761 10760 10761 10761 10760 10760 10760 10760 10760 10760 10760 10759 10759 10759 10759 10758 10757 10757 10756 10755 10755 10754 10753 10752 10751 10750 10749 10748 10747 10745 10743 10741 10740 10739 10738 10736 10735 10733 10732 10730 10727 10725 10723 10720 10717 10714 10711 10707 10704 10699 10696 10693 10690 10688
10733 10736 10738 10740 10742 10744 10746 10748 10749 10750 10751 10752 10753 10753 10754 10754 10755 10755 10756 10756 10756 10757 10757 10757 10758 10758 10758 10758 10758 10758 10758 10758 10758 10758 10757 10757 10757 10757 10757 10757 10757 10757 10757 10756 10756 10756 10755 10755 10754 10754 10753 10752 10751 10751 10750 10749 10748 10747 10746 10745 10743 10742 10741 10739 10738 10736 10734 10733 10732 10731 10729 10727 10725 10723 10721 10718 10715 10713 10709 10706 10703 10699 10695 10691 10687 10684 10681 10678
10731 10733 10735 10737 10739 10741 10743 10745 10746 10747 10748 10749 10749 10750 10750 10751 10752 10752 10753 10753 10753 10753 10754 10754 10754 10754 10754 10755 10755 10755 10755 10755 10755 10754 10754 10754 10754 10754 10754 10754 10754 10753 10753 10753 10752 10751 10751 10751 10750 10749 10749 10748 10747 10746 10745 10744 10743 10741 10740 10739 10737 10736 10735 10733 10731 10730 10728 10727 10726 10724 10722 10720 10718 10717 10714 10710 10708 10705 10701 10697 10694 10690 10686 10682 10678 10675 10671 10668
10728 10730 10732 10734 10736 10738 10740 10741 10743 10744 10745 10745 10746 10747 10747 10748 10749 10749 10749 10750 10750 10750 10750 10750 10750 10750 10751 10751 10751 10751 10751 10751 10751 10751 10751 10751 10750 10750 10750 10750 10749 10749 10748 10748 10748 10747 10746 10746 10745 10745 10744 10743 10742 10741 10740 10739 10737 10736 10735 10733 10732 10731 10729 10727 10725 10723 10721 10720 10719 10717 10715 10713 10711 10709 10707 10703 10700 10696 10693 10689 10685 10681 10678 10674 10671 10667 10663 10659
10726 10728 10730 10732 10733 10735 10736 10738 10739 10741 10742 10743 10743 10744 10745 10745 10745 10746 10746 10746 10746 10746 10746 10746 10746 10746 10747 10747 10747 10747 10747 10747 10747 10747 10747 10747 10746 10746 10746 10745 10745 10744 10743 10743 10743 10742 10741 10741 10740 10740 10739 10738 10737 10736 10735 10733 10732 10730 10728 10727 10726 10724 10723 10720 10718 10716 10714 10713 10711 10710 10708 10705 10703 10702 10699 10696 10692 10689 10685 10681 10677 10672 10669 10666 10663 10660 10656 10651
10724 10725 10727 10729 10731 10732 10733 10735 10736 10737 10738 10739 10740 10741 10741 10742 10742 10742 10742 10742 10742 10742 10742 10742 10742 10743 10743 10743 10743 10743 10743 10743 10743 10743 10743 10742 10742 10742 10742 10741 10740 10739 10738 10738 10738 10737 10736 10735 10735 10734 10733 10732 10731 10730 10728 10727 10725 10724 10722 10720 10719 10717 10716 10713 10711 10709 10707 10705 10704 10702 10701 10698 10695 10693 10691 10688 10685 10681 10677 10673 10668 10664 10660 10658 10656 10653 10649 10644
10721 10723 10725 10726 10728 10729 10730 10732 10733 10734 10735 10736 10737 10737 10738 10738 10738 10738 10738 10738 10738 10738 10738 10738 10738 10739 10739 10739 10740 10739 10739 10739 10739 10738 10738 10737 10737 10737 10737 10737 10736 10735 10734 10733 10732 10731 10731 10730 10729 10728 10727 10726 10724 10723 10721 10720 10719 10717 10715 10714 10712 10710 10708 10706 10704 10702 10700 10698 10696 10695 10693 10690 10687 10684 10683 10679 10676 10673 10669 10665 10660 10655 10651 10649 10648 10645 10641 10636
10718 10720 10722 10724 10725 10726 10727 10729 10730 10731 10732 10733 10733 10734 10734 10734 10734 10734 10734 10734 10734 10734 10734 10734 10734 10734 10734 10735 10735 10735 10735 10735 10734 10733 10733 10732 10731 10731 10731 10731 10730 10730 10729 10727 10726 10725 10725 10724 10723 10722 10720 10719 10718 10716 10714 10713 10711 10710 10709 10707 10705 10703 10701 10699 10697 10694 10692 10690 10688 10686 10685 10683 10679 10676 10674 10671 10668 10665 10661 10657 10651 10646 10643 10641 10640 10637 10633 10628
10716 10718 10719 10721 10722 10723 10724 10726 10726 10727 10728 10729 10729 10730 10730 10730 10730 10730 10730 10730 10730 10730 10730 10730 10730 10730 10730 10730 10731 10731 10730 10729 10728 10728 10728 10727 10726 10725 10725 10724 10724 10724 10723 10722 10720 10719 10718 10717 10716 10715 10714 10712 10711 10709 10707 10706 10704 10703 10702 10700 10698 10695 10693 10691 10689 10687 10685 10682 10680 10678 10676 10674 10672 10669 10666 10663 10660 10656 10653 10649 10644 10638 10636 10634 10632 10629 10624 10620
10714 10715 10717 10718 10719 10720 10722 10723 10724 10724 10725 10725 10726 10726 10726 10727 10727 10727 10726 10726 10726 10726 10726 10726 10725 10725 10725 10725 10725 10725 10724 10723 10723 10722 10722 10722 10721 10720 10719 10718 10717 10717 10716 10715 10714 10713 10712 10711 10710 10709 10707 10706 10704 10703 10701 10699 10697 10696 10694 10692 10690 10688 10685 10683 10681 10679 10677 10675 10672 10669 10666 10664 10663 10661 10658 10655 10653 10649 10645 10642 10636 10630 10628 10627 10624 10621 10616 10612
10712 10713 10715 10716 10717 10718 10719 10720 10721 10721 10722 10722 10722 10722 10723 10723 10723 10723 10722 10722 10722 10722 10722 10721 10721 10720 10720 10720 10720 10719 10718 10718 10717 10716 10716 10716 10715 10714 10714 10713 10711 10710 10709 10708 10708 10707 10706 10704 10703 10702 10700 10699 10697 10696 10694 10692 10690 10688 10686 10684 10682 10680 10678 10675 10673 10670 10669 10667 10664 10661 10658 10653 10653 10653 10649 10647 10645 10641 10638 10634 10629 10624 10621 10619 10616 10612 10608 10604
10710 10712 10713 10714 10715 10715 10716 10717 10718 10718 10719 10719 10719 10719 10719 10720 10719 10719 10719 10718 10718 10718 10717 10716 10715 10714 10714 10714 10713 10712 10711 10711 10711 10710 10709 10709 10708 10708 10707 10707 10705 10703 10701 10701 10700 10700 10699 10697 10697 10695 10693 10692 10690 10688 10687 10685 10683 10681 10679 10677 10674 10673 10670 10667 10665 10662 10661 10660 10656 10653 10651 10644 10642 10645 10642 10639 10637 10633 10630 10625 10620 10616 10614 10612 10608 10603 10599 10595
10709 10710 10711 10712 10712 10713 10714 10715 10715 10715 10716 10716 10716 10717 10717 10717 10716 10716 10715 10714 10713 10713 10712 10711 10710 10709 10708 10707 10706 10706 10705 10704 10703 10703 10702 10701 10700 10700 10700 10700 10698 10696 10695 10693 10692 10692 10691 10690 10689 10687 10686 10684 10682 10681 10680 10678 10676 10674 10673 10670 10667 10665 10662 10659 10657 10654 10653 10651 10647 10644 10643 10635 10632 10636 10635 10631 10629 10625 10621 10616 10611 10608 10605 10604 10599 10595 10591 10586
10707 10708 10709 10710 10711 10712 10712 10713 10713 10713 10713 10714 10714 10714 10713 10713 10712 10712 10711 10710 10709 10707 10707 10706 10705 10703 10701 10701 10700 10699 10698 10697 10695 10694 10694 10693 10692 10692 10691 10691 10690 10689 10687 10685 10684 10684 10683 10682 10682 10680 10678 10676 10675 10674 10673 10671 10669 10667 10666 10663 10660 10658 10655 10652 10648 10646 10645 10643 10638 10635 10635 10629 10623 10627 10627 10623 10621 10616 10612 10607 10602 10599 10595 10593 10590 10586 10582 10577
10706 10707 10708 10709 10709 10710 10710 10711 10711 10711 10711 10711 10711 10710 10710 10709 10709 10708 10707 10706 10704 10702 10701 10700 10699 10697 10695 10694 10693 10692 10691 10690 10688 10687 10685 10684 10683 10683 10682 10681 10680 10679 10678 10677 10676 10675 10674 10674 10673 10671 10669 10668 10667 10666 10666 10665 10662 10660 10659 10657 10654 10651 10648 10645 10640 10639 10638 10634 10630 10627 10627 10622 10617 10618 10618 10615 10612 10607 10602 10598 10593 10589 10586 10583 10581 10577 10572 10567
10704 10705 10706 10707 10708 10708 10709 10709 10709 10709 10709 10708 10708 10707 10707 10706 10705 10704 10703 10701 10700 10698 10696 10695 10694 10692 10690 10689 10687 10686 10685 10683 10682 10681 10678 10676 10675 10674 10673 10671 10670 10669 10668 10667 10667 10666 10665 10665 10664 10663 10661 10659 10659 10659 10658 10657 10655 10652 10652 10650 10647 10644 10642 10638 10634 10633 10630 10625 10623 10621 10619 10614 10610 10611 10610 10606 10603 10598 10594 10590 10585 10580 10577 10574 10571 10568 10563 10558
10703 10704 10705 10706 10706 10707 10707 10707 10707 10707 10706 10706 10705 10704 10704 10703 10701 10700 10699 10697 10695 10694 10692 10690 10689 10687 10685 10684 10682 10680 10679 10677 10676 10675 10672 10670 10668 10666 10664 10663 10662 10661 10660 10659 10658 10658 10657 10656 10656 10655 10653 10653 10652 10651 10651 10650 10647 10645 10644 10643 10640 10638 10635 10630 10628 10627 10623 10619 10617 10614 10612 10606 10602 10602 10602 10598 10594 10589 10585 10581 10576 10571 10568 10565 10562 10559 10554 10550
10702 10703 10704 10705 10705 10705 10705 10705 10705 10704 10704 10703 10702 10701 10700 10699 10697 10696 10694 10692 10690 10689 10687 10685 10683 10681 10680 10678 10676 10675 10673 10672 10670 10668 10667 10665 10662 10660 10657 10656 10654 10653 10652 10651 10651 10650 10649 10649 10648 10647 10647 10647 10645 10643 10643 10642 10640 10638 10637 10636 10634 10632 10628 10622 10621 10620 10616 10613 10610 10606 10603 10600 10596 10592 10592 10591 10587 10581 10576 10571 10566 10562 10558 10554 10551 10548 10544 10540
10702 10702 10703 10703 10703 10704 10704 10703 10703 10702 10701 10701 10699 10698 10697 10695 10694 10692 10690 10688 10686 10684 10681 10679 10677 10675 10673 10672 10670 10669 10667 10666 10664 10662 10661 10659 10657 10654 10652 10650 10648 10646 10645 10644 10644 10643 10643 10642 10640 10640 10640 10640 10638 10636 10635 10634 10633 10632 10630 10628 10626 10624 10621 10616 10614 10612 10608 10606 10602 10598 10595 10593 10589 10583 10581 10581 10578 10574 10568 10562 10558 10553 10548 10545 10541 10537 10534 10530
10700 10701 10702 10702 10702 10702 10702 10701 10701 10700 10699 10698 10697 10695 10694 10692 10690 10688 10685 10683 10681 10679 10676 10673 10671 10668 10667 10666 10664 10663 10661 10660 10658 10656 10655 10653 10651 10649 10647 10645 10643 10641 10640 10638 10638 10637 10636 10635 10633 10634 10634 10633 10631 10630 10628 10627 10626 10624 10622 10621 10618 10616 10614 10610 10607 10604 10600 10597 10594 10589 10586 10585 10582 10575 10572 10571 10568 10564 10560 10555 10550 10545 10540 10535 10531 10528 10524 10520
10700 10700 10701 10701 10701 10701 10700 10699 10698 10698 10697 10695 10694 10692 10691 10689 10687 10684 10681 10678 10677 10674 10670 10667 10664 10662 10660 10659 10657 10656 10655 10654 10653 10650 10649 10648 10646 10644 10642 10640 10638 10636 10635 10634 10633 10631 10630 10629 10628 10627 10627 10626 10624 10623 10622 10621 10619 10617 10614 10613 10611 10608 10606 10603 10599 10596 10592 10589 10586 10581 10577 10576 10574 10568 10563 10561 10557 10553 10549 10546 10541 10536 10531 10526 10522 10518 10514 10510
10699 10699 10700 10700 10699 10699 10698 10697 10696 10695 10694 10692 10691 10689 10687 10685 10683 10680 10677 10673 10670 10668 10664 10661 10657 10655 10653 10652 10650 10650 10649 10648 10647 10645 10644 10643 10641 10639 10637 10635 10634 10632 10631 10630 10628 10627 10626 10624 10623 10622 10621 10619 10618 10617 10616 10614 10612 10609 10607 10606 10604 10600 10598 10596 10592 10588 10585 10582 10578 10573 10569 10568 10566 10561 10556 10551 10547 10542 10538 10535 10530 10526 10521 10517 10512 10508 10504 10500
10698 10698 10698 10698 10697 10696 10695 10695 10693 10692 10690 10689 10687 10684 10682 10680 10677 10674 10671 10667 10664 10661 10657 10654 10651 10648 10646 10645 10644 10643 10642 10642 10641 10640 10638 10637 10636 10634 10633 10631 10629 10628 10626 10625 10624 10623 10621 10620 10619 10617 10616 10615 10613 10612 10610 10609 10606 10603 10601 10600 10597 10594 10591 10589 10585 10581 10578 10575 10571 10565 10561 10560 10558 10553 10548 10543 10538 10533 10528 10524 10520 10515 10511 10507 10503 10499 10494 10489
10697 10697 10696 10696 10695 10694 10693 10692 10690 10688 10686 10684 10682 10680 10677 10674 10671 10667 10664 10661 10657 10653 10650 10647 10644 10642 10640 10638 10637 10637 10636 10635 10635 10634 10633 10632 10630 10630 10628 10626 10625 10623 10622 10621 10620 10619 10617 10616 10614 10612 10611 10609 10608 10606 10604 10603 10601 10597 10594 10592 10590 10587 10584 10581 10578 10575 10572 10568 10563 10556 10550 10551 10551 10544 10539 10534 10529 10524 10519 10515 10510 10505 10501 10497 10493 10489 10483 10478
10695 10695 10694 10693 10692 10691 10690 10688 10686 10684 10682 10680 10678 10675 10672 10668 10665 10661 10658 10655 10650 10646 10642 10640 10637 10635 10633 10632 10631 10631 10630 10629 10629 10628 10627 10626 10625 10624 10623 10622 10621 10619 10617 10616 10616 10614 10612 10610 10609 10607 10605 10603 10601 10599 10597 10596 10594 10591 10587 10585 10582 10579 10576 10573 10569 10566 10564 10560 10555 10547 10539 10540 10541 10536 10529 10524 10519 10514 10510 10505 10500 10495 10491 10486 10482 10478 10472 10466
10694 10693 10692 10691 10690 10689 10687 10685 10683 10681 10678 10675 10672 10669 10666 10664 10660 10656 10652 10649 10644 10640 10636 10633 10630 10628 10627 10625 10625 10625 10624 10623 10623 10622 10622 10621 10620 10619 10618 10617 10616 10615 10613 10612 10611 10608 10606 10604 10602 10601 10599 10597 10595 10593 10590 10588 10587 10584 10581 10577 10574 10571 10568 10565 10561 10557 10553 10551 10546 10537 10530 10530 10530 10526 10519 10513 10509 10504 10499 10494 10490 10485 10480 10475 10470 10465 10459 10454
10692 10691 10690 10689 10688 10687 10685 10683 10680 10678 10674 10671 10668 10665 10662 10658 10655 10651 10647 10643 10638 10634 10631 10628 10625 10623 10622 10620 10619 10619 10618 10617 10617 10616 10616 10616 10615 10614 10613 10611 10610 10609 10607 10607 10605 10602 10601 10599 10597 10595 10593 10590 10588 10586 10583 10581 10579 10576 10573 10570 10566 10563 10560 10556 10553 10548 10543 10542 10537 10528 10522 10519 10519 10516 10508 10502 10499 10494 10488 10483 10478 10473 10468 10463 10457 10452 10447 10441
10690 10690 10688 10687 10686 10684 10682 10680 10677 10674 10670 10666 10663 10660 10657 10653 10649 10645 10641 10637 10633 10629 10626 10623 10621 10619 10617 10616 10615 10614 10613 10612 10612 10611 10611 10611 10610 10609 10608 10606 10605 10604 10602 10601 10600 10597 10595 10593 10591 10589 10586 10584 10582 10579 10576 10574 10571 10568 10565 10561 10558 10555 10552 10548 10545 10540 10535 10533 10528 10520 10515 10510 10509 10507 10497 10490 10489 10483 10477 10471 10466 10461 10456 10450 10445 10440 10435 10429
10689 10687 10686 10684 10683 10681 10679 10676 10673 10670 10666 10663 10659 10656 10652 10648 10644 10639 10635 10632 10628 10625 10622 10620 10617 10615 10613 10612 10610 10609 10608 10608 10607 10606 10606 10606 10605 10604 10603 10601 10600 10599 10597 10596 10594 10591 10589 10587 10585 10582 10580 10577 10575 10572 10569 10567 10563 10560 10557 10553 10550 10547 10544 10541 10537 10531 10526 10523 10519 10513 10508 10502 10500 10497 10488 10480 10477 10472 10465 10459 10454 10450 10444 10439 10434 10429 10423 10417
10686 10685 10683 10682 10680 10678 10675 10672 10669 10666 10663 10660 10656 10652 10648 10644 10640 10636 10632 10628 10624 10621 10618 10616 10614 10612 10610 10608 10607 10605 10604 10604 10603 10602 10601 10601 10600 10598 10597 10596 10595 10593 10592 10590 10588 10586 10583 10581 10578 10576 10573 10570 10567 10565 10562 10559 10556 10552 10548 10544 10542 10538 10535 10533 10529 10523 10518 10514 10510 10505 10499 10494 10490 10486 10478 10471 10467 10461 10454 10448 10443 10438 10433 10428 10423 10417 10411 10406
10683 10682 10681 10679 10677 10674 10672 10669 10666 10663 10660 10656 10652 10648 10644 10640 10636 10632 10628 10625 10621 10618 10615 10612 10610 10608 10607 10605 10603 10602 10601 10599 10599 10598 10597 10596 10595 10594 10592 10591 10590 10588 10587 10584 10582 10580 10577 10575 10572 10569 10566 10563 10560 10557 10554 10551 10548 10544 10540 10535 10532 10529 10527 10526 10522 10516 10511 10506 10502 10497 10490 10486 10481 10475 10467 10461 10456 10450 10444 10439 10434 10429 10424 10419 10413 10407 10401 10395
10681 10679 10678 10676 10673 10671 10668 10665 10663 10660 10656 10653 10649 10644 10640 10636 10632 10628 10624 10621 10618 10615 10612 10610 10607 10605 10603 10602 10600 10599 10597 10596 10595 10594 10593 10592 10590 10589 10588 10586 10585 10583 10582 10579 10576 10573 10570 10567 10565 10562 10559 10555 10553 10550 10546 10543 10540 10536 10531 10526 10523 10519 10518 10518 10515 10509 10504 10498 10494 10487 10481 10477 10472 10465 10457 10449 10444 10440 10435 10430 10425 10420 10415 10409 10403 10397 10391 10385
10678 10677 10675 10672 10670 10667 10665 10662 10659 10656 10653 10649 10645 10641 10637 10632 10628 10624 10620 10617 10614 10611 10609 10606 10604 10603 10601 10599 10597 10596 10594 10592 10591 10590 10588 10587 10586 10584 10583 10581 10579 10577 10576 10574 10571 10568 10563 10559 10557 10554 10551 10548 10545 10543 10539 10536 10532 10529 10523 10518 10515 10509 10506 10507 10505 10501 10496 10492 10486 10477 10471 10467 10461 10455 10448 10439 10433 10429 10425 10421 10416 10411 10405 10398 10393 10387 10380 10374
10675 10674 10672 10669 10667 10664 10661 10659 10655 10652 10648 10645 10641 10637 10633 10629 10624 10620 10617 10613 10610 10608 10606 10604 10601 10600 10598 10596 10594 10592 10590 10589 10587 10586 10584 10583 10581 10580 10578 10576 10574 10572 10570 10568 10565 10563 10558 10553 10550 10547 10543 10541 10538 10535 10531 10528 10525 10522 10516 10510 10507 10502 10497 10494 10493 10489 10485 10483 10479 10469 10461 10456 10449 10445 10439 10430 10425 10420 10415 10410 10405 10399 10393 10387 10381 10375 10368 10363
10673 10671 10668 10666 10664 10661 10658 10655 10651 10648 10644 10640 10637 10633 10629 10625 10621 10617 10614 10611 10607 10605 10602 10600 10598 10597 10595 10593 10591 10589 10587 10585 10583 10582 10580 10579 10577 10575 10573 10571 10569 10567 10565 10563 10560 10558 10555 10548 10543 10540 10537 10534 10532 10528 10524 10520 10517 10514 10509 10503 10499 10494 10489 10485 10482 10478 10472 10471 10469 10461 10453 10447 10440 10435 10429 10421 10416 10411 10405 10399 10393 10387 10382 10376 10369 10363 10356 10350
10670 10668 10665 10663 10661 10658 10655 10651 10647 10643 10640 10636 10632 10628 10624 10620 10616 10613 10610 10607 10605 10602 10600 10597 10595 10593 10592 10590 10588 10586 10584 10582 10580 10578 10576 10575 10573 10571 10569 10566 10564 10562 10560 10558 10555 10553 10551 10545 10537 10533 10532 10529 10525 10522 10517 10513 10509 10504 10500 10495 10490 10486 10481 10476 10472 10468 10462 10460 10459 10453 10445 10439 10431 10424 10418 10412 10407 10402 10395 10388 10382 10376 10370 10364 10357 10350 10344 10337
10668 10665 10663 10660 10657 10654 10651 10647 10643 10639 10635 10631 10628 10624 10620 10616 10613 10609 10607 10604 10601 10599 10597 10595 10592 10590 10588 10587 10585 10583 10581 10579 10577 10575 10573 10571 10569 10566 10565 10562 10560 10557 10555 10552 10550 10547 10545 10542 10532 10525 10524 10522 10518 10514 10510 10505 10500 10495 10490 10485 10481 10477 10473 10467 10462 10458 10454 10451 10450 10446 10438 10430 10421 10412 10407 10403 10397 10391 10385 10378 10371 10365 10358 10351 10344 10337 10331 10324
10665 10662 10660 10657 10654 10651 10647 10643 10639 10635 10631 10627 10623 10619 10616 10612 10609 10606 10603 10600 10598 10596 10594 10592 10589 10587 10585 10583 10582 10580 10578 10576 10574 10572 10569 10567 10565 10562 10560 10558 10555 10552 10549 10546 10544 10540 10538 10536 10529 10521 10518 10515 10511 10507 10503 10497 10492 10486 10482 10478 10474 10469 10464 10459 10454 10448 10443 10440 10437 10436 10432 10422 10410 10401 10397 10393 10386 10379 10373 10366 10359 10352 10345 10338 10331 10324 10317 10310
10662 10659 10657 10653 10650 10646 10643 10639 10635 10631 10626 10622 10619 10615 10612 10609 10606 10603 10600 10598 10595 10593 10591 10589 10587 10585 10582 10580 10578 10576 10574 10572 10570 10567 10565 10562 10560 10557 10554 10552 10549 10546 10543 10540 10537 10534 10531 10528 10523 10516 10511 10509 10506 10502 10496 10490 10484 10479 10475 10471 10466 10461 10456 10452 10446 10438 10432 10428 10423 10422 10423 10415 10399 10391 10387 10380 10374 10367 10360 10353 10346 10339 10332 10325 10318 10310 10302 10295
10659 10656 10653 10649 10646 10642 10638 10635 10630 10626 10622 10618 10615 10611 10608 10606 10603 10600 10598 10595 10593 10591 10588 10586 10584 10582 10579 10577 10575 10572 10570 10568 10565 10563 10561 10558 10555 10552 10549 10546 10544 10541 10538 10534 10531 10528 10524 10521 10517 10511 10505 10501 10499 10495 10489 10483 10477 10473 10469 10464 10458 10453 10448 10444 10439 10431 10422 10416 10409 10406 10409 10405 10391 10381 10376 10368 10361 10355 10347 10339 10332 10325 10318 10310 10302 10294 10286 10278
10656 10653 10649 10646 10642 10638 10634 10630 10626 10622 10618 10615 10611 10608 10605 10603 10600 10598 10595 10593 10591 10588 10586 10584 10581 10579 10576 10574 10571 10569 10566 10564 10562 10559 10556 10554 10551 10548 10545 10541 10539 10535 10532 10528 10524 10521 10518 10515 10511 10505 10499 10496 10493 10488 10483 10476 10471 10467 10462 10457 10451 10446 10440 10434 10429 10424 10415 10407 10398 10393 10394 10392 10382 10372 10365 10357 10350 10342 10333 10325 10317 10309 10302 10294 10286 10277 10269 10260
10652 10649 10646 10642 10638 10634 10630 10626 10621 10618 10615 10611 10609 10606 10603 10600 10598 10595 10593 10591 10588 10586 10584 10581 10579 10576 10573 10571 10568 10565 10563 10560 10558 10555 10552 10549 10546 10543 10540 10536 10533 10530 10526 10523 10519 10515 10512 10510 10506 10500 10494 10490 10486 10481 10476 10470 10464 10459 10454 10449 10443 10437 10431 10424 10418 10413 10407 10399 10389 10382 10380 10377 10368 10360 10352 10344 10337 10327 10318 10311 10302 10293 10285 10277 10269 10260 10251 10242
10649 10645 10642 10638 10634 10630 10626 10621 10618 10614 10612 10609 10606 10604 10601 10599 10596 10594 10591 10589 10586 10584 10581 10579 10576 10574 10571 10568 10565 10562 10559 10557 10554 10551 10548 10545 10541 10538 10535 10532 10529 10526 10522 10518 10514 10510 10507 10504 10501 10497 10492 10487 10481 10474 10469 10463 10456 10450 10445 10441 10436 10430 10422 10416 10408 10402 10396 10388 10378 10369 10367 10362 10352 10344 10338 10330 10322 10312 10303 10295 10286 10277 10269 10260 10252 10243 10234 10225
10645 10642 10638 10634 10630 10626 10622 10618 10615 10612 10609 10607 10604 10602 10599 10597 10594 10592 10589 10587 10584 10581 10579 10576 10573 10571 10568 10565 10562 10559 10556 10553 10550 10547 10544 10541 10538 10535 10532 10529 10526 10522 10518 10515 10510 10505 10501 10497 10494 10490 10488 10485 10479 10472 10467 10461 10452 10444 10437 10432 10428 10422 10413 10406 10399 10390 10383 10377 10368 10356 10352 10348 10337 10327 10322 10315 10305 10297 10287 10278 10269 10260 10252 10244 10236 10227 10217 10209
10641 10637 10633 10629 10625 10622 10618 10615 10612 10610 10607 10605 10602 10600 10597 10595 10592 10590 10587 10584 10582 10579 10576 10573 10570 10567 10564 10561 10558 10556 10553 10550 10547 10544 10541 10538 10535 10532 10529 10525 10522 10519 10514 10510 10506 10501 10496 10491 10486 10481 10478 10477 10472 10465 10460 10455 10447 10439 10430 10423 10418 10411 10403 10395 10387 10379 10371 10365 10358 10345 10336 10331 10321 10310 10304 10297 10288 10280 10270 10261 10252 10243 10234 10227 10218 10209 10200 10192
10637 10633 10629 10625 10621 10618 10615 10613 10610 10608 10605 10603 10601 10598 10595 10593 10590 10587 10584 10582 10579 10576 10573 10570 10567 10564 10561 10558 10555 10553 10550 10547 10544 10541 10538 10536 10532 10529 10526 10522 10518 10514 10510 10506 10502 10497 10491 10486 10480 10472 10467 10466 10462 10454 10449 10444 10437 10430 10422 10414 10407 10400 10393 10384 10375 10367 10358 10350 10345 10336 10325 10316 10306 10296 10288 10279 10271 10263 10254 10244 10236 10227 10218 10210 10201 10192 10183 10175
10633 10629 10625 10621 10618 10615 10613 10610 10608 10606 10603 10601 10599 10596 10593 10590 10588 10585 10582 10579 10576 10573 10570 10567 10564 10561 10558 10556 10553 10550 10547 10544 10541 10538 10535 10532 10528 10525 10521 10518 10514 10510 10506 10501 10496 10492 10486 10480 10474 10465 10456 10454 10451 10444 10438 10433 10426 10420 10414 10406 10399 10391 10382 10374 10364 10354 10345 10335 10328 10322 10313 10303 10292 10282 10273 10264 10255 10246 10237 10228 10219 10211 10203 10194 10185 10177 10168 10159
10629 10625 10622 10619 10616 10613 10611 10609 10606 10604 10601 10599 10596 10594 10591 10588 10585 10582 10579 10576 10573 10570 10568 10565 10562 10559 10556 10554 10551 10548 10545 10541 10538 10534 10531 10528 10525 10521 10517 10513 10509 10505 10500 10496 10490 10486 10481 10475 10469 10462 10450 10444 10441 10435 10429 10424 10416 10410 10404 10397 10390 10381 10372 10362 10352 10342 10333 10323 10313 10305 10298 10287 10276 10266 10257 10248 10239 10230 10221 10213 10203 10195 10187 10179 10170 10161 10153 10144
10625 10622 10619 10616 10614 10611 10609 10607 10604 10602 10599 10597 10594 10591 10589 10586 10583 10580 10577 10574 10572 10569 10566 10563 10561 10558 10555 10552 10549 10546 10543 10540 10537 10533 10529 10525 10521 10517 10513 10508 10504 10499 10494 10489 10484 10479 10475 10469 10464 10458 10448 10439 10434 10427 10419 10414 10407 10400 10394 10387 10379 10371 10361 10351 10341 10329 10319 10310 10301 10291 10282 10273 10263 10253 10244 10234 10225 10217 10208 10199 10191 10181 10172 10164 10155 10146 10137 10128
10622 10619 10617 10614 10612 10610 10607 10605 10603 10600 10597 10595 10592 10589 10586 10584 10581 10578 10575 10573 10570 10567 10565 10562 10559 10556 10553 10550 10547 10544 10541 10537 10534 10530 10526 10522 10517 10513 10509 10504 10499 10494 10489 10484 10478 10473 10468 10463 10458 10453 10445 10435 10428 10421 10411 10403 10397 10388 10382 10375 10367 10358 10349 10338 10328 10315 10304 10297 10290 10281 10271 10262 10252 10244 10235 10225 10214 10205 10196 10186 10177 10169 10159 10150 10141 10132 10123 10115
10619 10616 10614 10612 10610 10608 10606 10603 10600 10598 10595 10593 10590 10587 10584 10582 10579 10576 10574 10571 10568 10566 10563 10560 10557 10554 10551 10548 10544 10541 10537 10533 10529 10525 10521 10517 10513 10508 10504 10499 10494 10489 10484 10478 10473 10467 10462 10456 10450 10446 10440 10430 10422 10415 10405 10395 10387 10378 10370 10363 10355 10346 10337 10327 10316 10303 10290 10282 10276 10269 10260 10251 10242 10233 10224 10214 10203 10192 10182 10173 10164 10156 10147 10138 10128 10118 10110 10102